Regional Weather Roundup
Issued by NWS

Home | Current Version | Previous Version | Text Only | Print | Product List | Glossary On
Versions: 1 2 3 4 5 6 7 8 9 10 11 12 13 14 15 16 17 18 19 20 21 22 23 24 25 26 27 28
000
ASUS45 KBOU 191207
RWRCO

WEATHER ROUNDUP FOR COLORADO
NATIONAL WEATHER SERVICE DENVER/BOULDER CO
500 AM MST THU JAN 19 2017

NOTE: "FAIR" INDICATES FEW OR NO CLOUDS BELOW 12000 FEET WITH NO
SIGNIFICANT WEATHER AND/OR OBSTRUCTIONS TO VISIBILITY.

COZ001>005-013-030-031-191300-
...NORTHWEST COLORADO...

CITY           SKY/WX    TMP DP  RH WIND       PRES   REMARKS
CRAIG          FAIR       1  -4  79 W3        29.87F
HAYDEN         FAIR      12   7  79 E12       29.85F WCI  -2
MEEKER         FAIR      12   9  87 CALM      29.85F
MOUNT WERNER   NOT AVBL
STEAMBOAT SPGS FAIR       8   6  90 CALM      29.87F
WALDEN           N/A    N/A N/A N/A CALM      29.85F
$$

COZ006>008-011-191300-
...WEST CENTRAL VALLEYS...

CITY           SKY/WX    TMP DP  RH WIND       PRES   REMARKS
GRAND JUNCTION FAIR      30  26  85 E14       29.89F WCI  19
MONTROSE       FAIR      25  19  78 SE7       29.92F WCI  17
EAGLE          FAIR       7   4  87 CALM      29.97F
RIFLE          FAIR      21  18  88 CALM      29.91F
DELTA          FAIR      28  24  84 NE7       29.92F WCI  21
NUCLA          FAIR      28  21  74 E10       29.94S WCI  19
$$

COZ017>023-064>068-191300-
...SOUTHWEST COLORADO...

CITY           SKY/WX    TMP DP  RH WIND       PRES   REMARKS
DURANGO        FAIR      22  19  89 NE3       29.90F
CORTEZ         FAIR      21  19  92 E5        29.92F WCI  15
PAGOSA SPRINGS FAIR      27  27  99 CALM      29.91S FOG
TELLURIDE      FAIR      19  11  71 SE8       29.90F WCI   9
WOLF CREEK PAS   N/A     16  16 100 SW10      29.93S WCI   3
$$

COZ009-010-012-014-032>034-037-058>063-191300-
...CENTRAL COLORADO...

CITY           SKY/WX    TMP DP  RH WIND       PRES   REMARKS
ASPEN          FAIR       8   5  87 VRB3      29.86F
BUENA VISTA    FAIR       9   6  85 CALM      29.80S
COPPER MTN     FAIR      21   9  58 MISG      29.89S
BERTHOUD PASS  NOT AVBL
COTTONWOOD PAS FAIR      32   9  37 W10G23    29.79S WCI  24
GUNNISON       FLURRIES  -3  -7  82 E5        29.99F WCI -13
KREMMLING      FOG        7   3  85 CALM      29.97S VSB 1/4
LEADVILLE      FAIR      10   3  73 N9        29.84F WCI  -3
MONARCH PASS   SNOW      12   9  85 E3        29.92F VSB 1/2
SALIDA         FAIR      26  18  71 W9        29.87S WCI  17
SUNLIGHT       FAIR      18  12  79 SW10      29.91F WCI   6
WILKERSON PASS FAIR      30   0  27 NW10G24   29.81S WCI  21
$$

COZ069>075-191300-
...SAN LUIS VALLEY/SANGRE DE CRISTO MOUNTAINS...

CITY           SKY/WX    TMP DP  RH WIND       PRES   REMARKS
ALAMOSA        CLOUDY    21  20  96 W6        29.89F WCI  13
LA VETA PASS   CLOUDY    16  12  86 NE40G47   29.74S FOG     WCI  -7
SAGUACHE       CLOUDY    14  12  92 NW3       29.89F
$$

COZ035-036-038>040-191300-
...NORTHERN COLORADO FRONT RANGE...

CITY           SKY/WX    TMP DP  RH WIND       PRES   REMARKS
DENVER INTL AP FAIR      28  15  58 SW7       29.61F WCI  21
DMNS CITY PARK   N/A     28  14  56 S6        29.63F WCI  21
AURORA         PTCLDY    30  14  51 S8        29.63F WCI  22
FRONT RANGE AP FAIR      30  18  59 S8        29.63F WCI  23
ERIE MUNI ARPT FAIR      20  18  91 S6        29.63S WCI  12
BOULDER MUN AP FAIR      32  19  59 SW5       29.62F WCI  27
CENTENNIAL     FAIR      26  12  55 S5        29.63S WCI  20
BROOMFIELD     FAIR      36  16  44 CALM      29.63S
FORT COLLINS   FAIR      25  18  74 SE7       29.62F WCI  17
LONGMONT       FAIR      25  18  76 CALM      29.64F
$$

COZ041-046-047-076>085-087-088-191300-
...PIKES PEAK/PALMER DIVIDE AND SOUTHERN FOOTHILLS...

CITY           SKY/WX    TMP DP  RH WIND       PRES   REMARKS
COLO. SPRINGS  FAIR      33  10  38 VRB3      29.64S
A. F. ACADEMY  FAIR      26  10  52 N9        29.63S WCI  16
SCHRIEVER AFB  NOT AVBL
ELLICOTT       FAIR     N/A N/A N/A NE9       29.61F
FALCON         FAIR      31  10  41 NW10      29.64F WCI  22
FORT CARSON    CLEAR     34  10  37 SW8       29.64F WCI  27
LIMON          FAIR      21  14  74 NW3       29.62F
MONUMENT HILL  FAIR      28   9  43 W7        29.67S WCI  21
TRINIDAD       FAIR      21  12  68 W12       29.63F WCI   9
$$

COZ042>045-048>051-090-091-191300-
...NORTHEAST COLORADO...

CITY           SKY/WX    TMP DP  RH WIND       PRES   REMARKS
GREELEY ARPT   FAIR      20  18  92 S3        29.64F
AKRON          FAIR      26  19  74 W12       29.61F WCI  16
BURLINGTON     FAIR      27  21  78 NW10      29.61F WCI  17
WRAY           NOT AVBL
STERLING       FAIR      16  14  93 S6        29.62F WCI   7
HOLYOKE        FAIR      19  14  79 CALM      29.61F
FORT MORGAN    FAIR      21  19  91 W7        29.63F WCI  13
$$

COZ086-089-092>099-191300-
...SOUTHEAST COLORADO...

CITY           SKY/WX    TMP DP  RH WIND       PRES   REMARKS
PUEBLO         FAIR      22  18  85 CALM      29.62F
LA JUNTA       FAIR      20  16  84 W10       29.61F WCI   9
LAMAR          FAIR      18  15  88 W3        29.61F
SPRINGFIELD      N/A     28  22  78 NW13      29.57F WCI  17
$$




USA.gov is the U.S. government's official web portal to all federal, state and local government web resources and services.